Flag for U.S.A. Weather past 2 weeks in Bryan – College Station, Texas, U.S.A.

Now
76 °F

Sunny.


Feels Like: 78 °F
Forecast: 62 / 79 °F
Wind: No wind

Location: Easterwood Field

Current Time: Oct 23, 2014 at 2:35:14 PM

Latest Report: Oct 23, 2014 at 1:53 PM


Visibility: 10 mi

Pressure: 30.09 "Hg

Humidity: 48%

Dew point: 55 °F

Location of Bryan – College StationLocation

Historic Weather in Bryan – College Station — Graph

°F

Bryan – College Station temperature yesterday

Maximum temperature yesterday: 81 °F (at 2:53 PM)
Minimum temperature yesterday: 63 °F (at 7:53 AM)
Average temperature yesterday: 71 °F

Past Weeks' High & Low Weather Summary

 TemperatureHumidityPressure
High90 °F (Oct 10, 3:53 PM)97% (Oct 9, 6:53 AM)30.15 "Hg (Oct 9, 6:53 AM)
Low52 °F (Oct 14, 5:53 AM)26% (Oct 14, 4:53 PM)29.66 "Hg (Oct 13, 4:53 AM)
Average71 °F71%29.98 "Hg
* Reported Oct 8 12:53 PM — Oct 23 12:53 PM, Bryan – College Station, Weather by CustomWeather, © 2014

Note: Actual official high and low records may vary slightly from our data, if they occured in-between our weather recording intervals... More about our weather records

Advertising

Bryan – College Station weather history for previous 24 hours

 ConditionsComfort  
Time TempWeatherWind HumidityBarometerVisibility
12:53 PM
Oct 23
77 °FSunny.3 mph48%30.13 "Hg10 mi
11:53 AM74 °FSunny.3 mph50%30.14 "Hg10 mi
10:53 AM69 °FScattered clouds.5 mph57%30.15 "Hg10 mi
9:53 AM67 °FPassing clouds.6 mph61%30.14 "Hg10 mi
8:53 AM65 °FSunny.5 mph68%30.13 "Hg10 mi
7:53 AM64 °FLight rain. Partly cloudy.5 mph73%30.12 "Hg10 mi
6:53 AM65 °FLight rain. Passing clouds.3 mph73%30.10 "Hg10 mi
5:53 AM64 °FLight rain. Clear.9 mph75%30.06 "Hg10 mi
4:53 AM65 °FLight rain. Clear.6 mph73%30.06 "Hg10 mi
3:53 AM66 °FPassing clouds.3 mph73%30.08 "Hg10 mi
1:53 AM67 °FClear.7 mph73%30.07 "Hg10 mi
12:53 AM67 °FClear.5 mph73%30.08 "Hg10 mi
11:53 PM
Oct 22
69 °FClear.3 mph66%30.09 "Hg10 mi
10:53 PM69 °FClear.5 mph66%30.09 "Hg10 mi
9:53 PM70 °FClear.3 mph64%30.09 "Hg10 mi
8:53 PM71 °FClear.6 mph61%30.08 "Hg10 mi
7:53 PM74 °FClear.6 mph56%30.07 "Hg10 mi
6:53 PM75 °FSunny.6 mph52%30.05 "Hg10 mi
5:53 PM79 °FSunny.6 mph45%30.03 "Hg10 mi
4:53 PM80 °FSunny.9 mph44%30.02 "Hg10 mi
3:53 PM81 °FLight rain. Sunny.9 mph44%30.03 "Hg10 mi
2:53 PM81 °FSunny.6 mph45%30.05 "Hg10 mi
Weather by CustomWeather, © 2014

See weather overviewHow to use our weather pages